Regional Weather Roundup
Issued by NWS Northern Indiana

Home | Current Version | Previous Version | Graphics & Text | Print | Product List | Glossary On
Versions: 1 2 3 4 5 6 7 8 9 10 11 12 13 14 15 16 17 18 19 20 21 22 23 24 25 26 27 28 29 30 31 32 33 34 35 36 37 38 39 40 41 42 43 44 45 46 47 48 49 50
000
ASUS43 KIWX 291610
RWRIWX

KIWX WEATHER ROUNDUP
NATIONAL WEATHER SERVICE NORTHERN INDIANA
1200 PM EDT FRI JUL 29 2016

NOTE: "FAIR" INDICATES FEW OR NO CLOUDS BELOW 12,000 FEET WITH NO
SIGNIFICANT WEATHER AND/OR OBSTRUCTIONS TO VISIBILITY.

* THESE STATIONS ARE NOT UNDER NWS QUALITY CONTROL. THEY ALSO MAY NOT
  REPORT WEATHER SUCH AS PRECIPITATION OR FOG.

INZ001>027-291700-
NORTHERN INDIANA

CITY           SKY/WX    TMP DP  RH WIND       PRES   REMARKS
VALPARAISO     PTSUNNY   80  69  69 E3        29.95R
MICHIGAN CITY* PTSUNNY   79  70  73 CALM      29.95R
LAPORTE*       MOSUNNY   81  73  77 CALM      29.96R
KNOX*          SUNNY     79  61  53 CALM      29.94R
SOUTH BEND     PTSUNNY   79  70  74 VRB3      29.95S
ELKHART*       MOSUNNY   77  68  73 E8        29.97R
GOSHEN         MOSUNNY   81  67  62 NE5       29.95S
MONTICELLO*    SUNNY     83  65  56 S5        29.92F
LOGANSPORT*    SUNNY     81  68  65 CALM      29.94F
ROCHESTER*     MOSUNNY   84  72  65 SE3       29.94F
WARSAW*        SUNNY     81  68  65 E3        29.95S
ANGOLA*          N/A     77  66  69 N5        29.97R
FORT WAYNE     MOSUNNY   82  68  62 SE5       29.95R
HUNTINGTON*    SUNNY     81  70  70 CALM      29.95R
PERU/GRISSOM   CLOUDY    84  66  54 VRB5      29.92F
MARION*        MOSUNNY   81  69  67 W3        29.96R HAZE

$$
INZ028>050-291700-
CENTRAL INDIANA

CITY           SKY/WX    TMP DP  RH WIND       PRES   REMARKS
LAFAYETTE      CLOUDY    81  72  74 S5        29.92F
KOKOMO*        PTSUNNY   81  66  61 CALM      29.94S
MUNCIE*        MOSUNNY   84  69  60 VRB5      29.95R
INDIANAPOLIS   PTSUNNY   83  71  67 SW7       29.95S

$$
MIZ043>046-050>051-056>058-064>065-071>073-077>080-291700-
SOUTHWEST LOWER MICHIGAN

CITY           SKY/WX    TMP DP  RH WIND       PRES   REMARKS
BATTLE CREEK   LGT RAIN  67  67 100 N3        30.01R
BENTON HARBOR  MOSUNNY   78  65  63 E12       29.96R
COLDWATER*     LGT RAIN  68  67  98 N8        29.99S
HILLSDALE*     LGT RAIN  73  67  81 NW7       29.99R
HOLLAND        CLOUDY    74  64  71 E12       29.99R
GRAND RAPIDS   CLOUDY    74  62  66 NE8       30.01R
KALAMAZOO      LGT RAIN  70  66  87 NE5       30.00R
STURGIS*       PTSUNNY   73  67  79 NE10G18   29.98R
THREE RIVERS*  CLOUDY    73  64  75 E9        29.98S

$$
OHZ001>008-015>018-024>025-291700-
NORTHWEST OHIO

CITY           SKY/WX    TMP DP  RH WIND       PRES   REMARKS
DEFIANCE       SUNNY     84  67  56 CALM      29.95R
FINDLAY        SUNNY     84  67  56 VRB3      29.94R
TOLEDO EXPRESS SUNNY     82  66  58 VRB3      29.94S
TOLEDO METCALF MOSUNNY   83  69  62 VRB7      29.95S
LIMA           SUNNY     84  68  58 VRB3      29.94S

$$
AND FOR LAKE MICHIGAN COASTAL AND OPEN LAKE BUOY OBSERVATIONS

STATION/POSITION TEMP    WIND        PRES    VSBY  WAVE
                 AIR SEA DIR/SP/G                  HT/PER
                 (F)     (DEG/KT/KT) (MB)    (MI)  (FT/S)
CALUMET HARBOR    76      40/  5/  7 1013.0F
MICHIGAN CITY     77     320/  3/  3   N/A
BURNS HARBOR      74      10/  4/  8 1014.2S
SAINT JOSEPH      77     350/  1/  7 1014.9R
SOUTH LAKE BUOY   70 74   80/ 16/ 17 1013.9R         4/ 5
4 MI NW BRIDGMAN  76 76   80/  6/  8 1013.8R         2
MICHIGAN CITY     75 77   10/  4/  6   N/A           1/ 6

$$
&&




USA.gov is the U.S. government's official web portal to all federal, state and local government web resources and services.